| time (UTC) | temp C | wind direction | speed KPH | gust KPH | rain 1hr cm | rain 24hr cm | rain mn cm | humidity % | barometer mb |
| 20260504230006 | 14 | 229 | 8.0 | 25.7 | 0.00 | 0.00 | 0.00 | 64 | 1010.8 |
| 20260504224504 | 15 | 153 | 11.3 | 20.9 | 0.00 | 0.00 | 0.00 | 62 | 1010.8 |
| 20260504223003 | 15 | 115 | 3.2 | 12.9 | 0.00 | 0.00 | 0.00 | 60 | 1010.7 |
| 20260504221505 | 15 | 209 | 9.7 | 27.4 | 0.00 | 0.00 | 0.00 | 59 | 1010.6 |
| 20260504220003 | 16 | 284 | 9.7 | 25.7 | 0.00 | 0.00 | 0.00 | 57 | 1010.8 |
| 20260504214503 | 16 | 219 | 11.3 | 29.0 | 0.00 | 0.00 | 0.00 | 53 | 1010.8 |
| 20260504213009 | 17 | 153 | 11.3 | 27.4 | 0.00 | 0.00 | 0.00 | 52 | 1010.7 |
| 20260504211511 | 17 | 103 | 6.4 | 17.7 | 0.00 | 0.00 | 0.00 | 50 | 1010.7 |
| 20260504210005 | 17 | 98 | 4.8 | 29.0 | 0.00 | 0.00 | 0.00 | 49 | 1010.7 |
| 20260504204504 | 17 | 166 | 14.5 | 30.6 | 0.00 | 0.00 | 0.00 | 48 | 1010.6 |
| 20260504203008 | 18 | 203 | 11.3 | 22.5 | 0.00 | 0.00 | 0.00 | 47 | 1010.6 |
| 20260504201504 | 18 | 226 | 9.7 | 24.1 | 0.00 | 0.00 | 0.00 | 47 | 1010.5 |
| 20260504200004 | 18 | 241 | 6.4 | 19.3 | 0.00 | 0.00 | 0.00 | 48 | 1010.6 |
| 20260504194503 | 18 | 198 | 4.8 | 16.1 | 0.00 | 0.00 | 0.00 | 48 | 1010.7 |
| 20260504193004 | 18 | 240 | 11.3 | 32.2 | 0.00 | 0.00 | 0.00 | 48 | 1010.8 |
| 20260504191504 | 17 | 124 | 14.5 | 33.8 | 0.00 | 0.00 | 0.00 | 47 | 1010.7 |
| 20260504190004 | 17 | 195 | 16.1 | 35.4 | 0.00 | 0.00 | 0.00 | 47 | 1010.8 |
| 20260504184511 | 17 | 245 | 11.3 | 30.6 | 0.00 | 0.00 | 0.00 | 47 | 1010.9 |
| 20260504183007 | 18 | 143 | 9.7 | 24.1 | 0.00 | 0.00 | 0.00 | 43 | 1011.0 |
| 20260504181504 | 18 | 309 | 11.3 | 32.2 | 0.00 | 0.00 | 0.00 | 40 | 1011.1 |
| 20260504180009 | 18 | 221 | 12.9 | 29.0 | 0.00 | 0.00 | 0.00 | 36 | 1011.3 |
| 20260504174508 | 18 | 233 | 8.0 | 32.2 | 0.00 | 0.00 | 0.00 | 36 | 1011.2 |
| 20260504173003 | 18 | 240 | 17.7 | 35.4 | 0.00 | 0.00 | 0.00 | 35 | 1011.4 |
| 20260504171503 | 18 | 80 | 12.9 | 35.4 | 0.00 | 0.00 | 0.00 | 35 | 1011.4 |
| 20260504081508 | 3 | 290 | 0.0 | 1.6 | 0.00 | 0.00 | 0.00 | 82 | 1012.7 |
| 20260504050016 | 2 | 304 | 0.0 | 0.0 | 0.00 | 0.00 | 0.00 | 78 | 1012.3 |
| 20260504044532 | 2 | 304 | 0.0 | 3.2 | 0.00 | 0.00 | 0.00 | 77 | 1012.5 |
| 20260504043019 | 2 | 286 | 0.0 | 3.2 | 0.00 | 0.00 | 0.00 | 76 | 1012.5 |
| 20260504041506 | 3 | 297 | 1.6 | 1.6 | 0.00 | 0.00 | 0.00 | 76 | 1012.5 |
| 20260504040004 | 3 | 306 | 0.0 | 0.0 | 0.00 | 0.00 | 0.00 | 75 | 1012.4 |
| 20260504034533 | 3 | 306 | 0.0 | 0.0 | 0.00 | 0.00 | 0.00 | 74 | 1012.4 |
| 20260504033029 | 3 | 306 | 0.0 | 1.6 | 0.00 | 0.00 | 0.00 | 73 | 1012.4 |
| 20260504031518 | 3 | 320 | 0.0 | 3.2 | 0.00 | 0.00 | 0.00 | 72 | 1012.3 |
| 20260504030018 | 4 | 304 | 0.0 | 3.2 | 0.00 | 0.00 | 0.00 | 70 | 1012.1 |
| 20260504024519 | 4 | 311 | 1.6 | 3.2 | 0.00 | 0.00 | 0.00 | 69 | 1012.1 |
| 20260504023009 | 5 | 298 | 0.0 | 1.6 | 0.00 | 0.00 | 0.00 | 67 | 1012.0 |
| 20260504021507 | 5 | 298 | 0.0 | 1.6 | 0.00 | 0.00 | 0.00 | 64 | 1012.0 |
| 20260504020028 | 6 | 318 | 1.6 | 3.2 | 0.00 | 0.00 | 0.00 | 63 | 1012.0 |
| 20260504014524 | 5 | 323 | 0.0 | 1.6 | 0.00 | 0.00 | 0.00 | 64 | 1011.8 |
| 20260504013033 | 6 | 315 | 0.0 | 1.6 | 0.00 | 0.00 | 0.00 | 60 | 1011.7 |
| 20260504011520 | 6 | 316 | 0.0 | 1.6 | 0.00 | 0.00 | 0.00 | 58 | 1011.5 |
| 20260504010003 | 6 | 346 | 0.0 | 1.6 | 0.00 | 0.00 | 0.00 | 59 | 1011.3 |
| 20260504004513 | 7 | 346 | 0.0 | 1.6 | 0.00 | 0.00 | 0.00 | 55 | 1011.0 |
| 20260504003013 | 8 | 346 | 0.0 | 0.0 | 0.00 | 0.00 | 0.00 | 50 | 1011.0 |
| 20260504001508 | 9 | 346 | 0.0 | 0.0 | 0.00 | 0.00 | 0.00 | 47 | 1010.8 |
| 20260504000007 | 10 | 346 | 0.0 | 0.0 | 0.00 | 0.00 | 0.00 | 45 | 1010.5 |
| 20260503234504 | 11 | 308 | 0.0 | 4.8 | 0.00 | 0.00 | 0.00 | 37 | 1010.4 |
| 20260503233006 | 11 | 320 | 0.0 | 8.0 | 0.00 | 0.00 | 0.00 | 36 | 1010.3 |